Lid_Strength_Index
0 0 0 0 0 -0 0 -0 -1 -1 -0 -0 -0 -0 0 -0 -0 -0 0 0 1 1 0 1 1 0 1 1 1 1 2 2 4 3 1 1 1 1 1 -0 -1 -0 -1
1 0 0 0 -0 -0 -0 -0 -0 -0 -1 -0 -0 -0 -0 -0 -0 0 1 0 1 1 0 1 1 1 1 1 1 1 1 1 2 4 2 2 1 0 1 0 -0 -0 -1
0 1 0 0 -0 -0 -0 -0 -1 -0 -1 -0 -0 0 0 0 0 0 0 0 0 0 1 1 1 1 1 1 1 1 1 1 1 2 3 1 1 1 1 0 0 0 -1
1 1 0 1 -0 -0 -0 0 -1 -1 -0 0 -0 -0 -0 -0 0 0 0 0 1 0 0 0 1 1 1 1 1 1 1 2 2 2 2 3 2 1 1 2 2 1 1
1 1 0 -0 0 -1 -0 -1 -1 0 0 -0 -0 -0 -0 -0 1 1 0 1 1 1 0 0 0 -0 0 1 1 1 1 2 2 2 3 2 3 2 3 2 2 2 1
1 1 0 1 -0 0 0 0 -1 -0 -0 0 0 0 0 2 4 3 2 0 0 1 1 1 -0 -0 0 0 1 1 2 2 2 3 3 3 3 2 2 2 2 3 4
1 1 1 0 1 -1 0 0 0 0 -0 -0 -0 -0 0 1 6 5 4 1 1 1 0 1 1 0 -0 0 1 1 2 2 2 1 3 3 3 2 2 2 3 3 3
1 1 0 1 1 1 -0 0 -1 -1 -0 0 -0 -0 0 3 6 6 6 2 0 0 1 0 0 0 2 1 1 1 1 0 0 1 1 1 2 2 2 2 2 2 1
1 1 1 1 1 1 1 1 0 -0 -0 0 0 0 0 0 6 6 5 1 0 1 0 -0 0 0 6 5 1 1 1 1 1 2 3 4 5 5 4 3 3 4 5
1 1 1 0 1 1 -0 0 -0 0 1 0 1 0 1 -0 5 6 5 2 1 1 0 2 4 2 6 6 1 1 2 2 2 1 0 3 4 3 3 2 2 5 5
1 0 0 -0 0 0 0 -1 -0 0 0 0 0 0 0 0 1 6 6 3 1 2 1 1 3 6 6 6 6 1 3 4 3 2 1 1 0 0 1 1 1 3 4
1 1 1 0 1 0 0 0 0 1 1 1 1 1 1 0 1 6 6 6 4 2 1 1 3 7 6 6 6 5 6 6 4 2 2 2 3 2 1 1 1 1 1
1 1 1 1 0 0 1 1 1 1 2 2 2 2 1 1 0 5 6 7 6 4 1 4 5 7 7 6 6 6 6 3 2 3 3 3 2 2 2 1 1 -0 -0
1 1 1 1 1 0 1 0 2 1 2 2 2 1 1 1 1 2 3 3 6 4 3 1 3 3 3 2 4 3 3 2 2 3 2 2 2 2 1 1 3 3 3
1 1 1 1 1 1 1 1 1 0 2 1 1 1 1 2 4 6 4 2 3 6 7 2 1 1 1 1 1 1 1 1 2 2 3 3 2 2 2 2 2 3 4
1 2 1 1 1 1 1 1 3 4 6 6 6 4 2 5 8 8 8 8 9 9 5 4 4 3 2 2 1 2 2 3 2 3 3 3 3 3 3 3 3 3 4
2 1 1 2 1 2 1 2 2 1 6 7 7 8 8 6 8 8 8 9 10 9 5 5 4 3 2 1 1 2 3 2 3 4 3 3 3 3 4 3 3 3 4
1 3 1 1 1 2 1 2 1 2 2 2 6 6 9 9 9 9 9 9 5 8 5 4 3 2 1 1 1 2 3 3 4 3 4 3 3 3 4 4 4 4 5
1 1 1 1 1 2 1 1 1 1 1 1 1 6 7 9 9 9 9 5 4 4 3 3 3 2 2 2 2 2 3 4 5 5 4 4 3 3 4 4 4 8 7
2 4 3 1 2 2 2 2 2 1 2 2 2 1 1 4 4 4 5 4 4 4 3 2 2 2 2 2 2 3 3 4 4 4 4 3 4 3 4 4 4 5 5
1 2 5 2 2 2 2 2 2 2 3 2 1 1 6 2 2 2 2 3 3 2 1 1 2 2 3 2 2 3 3 4 4 4 4 4 3 4 4 4 4 4 4
2 2 2 2 2 2 2 2 1 2 2 2 1 1 10 2 1 1 1 1 1 0 0 0 1 2 2 2 3 3 4 4 4 4 4 5 4 4 4 4 4 5 5
1 1 2 1 1 3 2 1 1 2 2 1 1 1 3 1 1 1 1 0 0 0 -0 0 1 1 1 1 2 3 4 4 4 4 5 5 5 4 4 5 5 5 6
1 1 1 1 2 2 2 2 2 3 2 1 2 1 1 1 2 1 0 1 0 -0 -0 -0 -0 1 0 1 2 2 2 3 4 5 4 5 5 5 5 5 5 5 6
1 1 1 1 2 2 2 2 2 2 2 2 1 1 1 1 1 1 0 0 0 0 -1 -0 0 0 0 0 1 3 9 11 5 9 6 6 6 5 5 6 6 5 5
1 1 1 1 1 1 2 3 2 2 3 2 1 1 1 1 1 0 0 0 0 0 -0 -0 1 0 0 1 1 8 12 12 10 11 7 6 6 7 7 6 6 6 5